PUA2046 SAZM-SULS

Flight info

Callsign PUA2046
Flight time 0h 43m
Altitude 31000
Route ROPIS UM792 DARKA
Aircraft A320/M-SDE3FGHIRWY/LB1

Departure

Time 2026-04-26 19:08
Airport Ástor Piazzola International Airport (SAZM)

Arrival

Time 2026-04-26 19:51
Airport Capitan Corbeta CA Curbelo International Airport (SULS)
Time Latitude Longitude Altitude Speed Heading
2026-04-26 17:52 -37.93427 -57.58132 54 ft 0 kts 335°
2026-04-26 19:01 -37.93423 -57.58124 50 ft 0 kts 59°
2026-04-26 19:01 -37.93417 -57.58099 54 ft 6 kts 71°
2026-04-26 19:01 -37.93393 -57.58041 54 ft 9 kts 46°
2026-04-26 19:02 -37.93385 -57.57966 54 ft 10 kts 111°
2026-04-26 19:02 -37.93423 -57.57882 54 ft 12 kts 120°
2026-04-26 19:02 -37.93463 -57.57793 54 ft 11 kts 119°
2026-04-26 19:02 -37.93487 -57.57737 54 ft 11 kts 119°
2026-04-26 19:03 -37.93543 -57.57612 50 ft 12 kts 119°
2026-04-26 19:03 -37.93582 -57.57525 54 ft 11 kts 120°
2026-04-26 19:03 -37.93620 -57.57437 51 ft 12 kts 118°
2026-04-26 19:03 -37.93659 -57.57346 54 ft 12 kts 119°
2026-04-26 19:04 -37.93706 -57.57239 52 ft 15 kts 120°
2026-04-26 19:04 -37.93755 -57.57131 54 ft 14 kts 119°
2026-04-26 19:04 -37.93803 -57.57021 54 ft 14 kts 118°
2026-04-26 19:04 -37.93854 -57.56904 54 ft 16 kts 119°
2026-04-26 19:05 -37.93965 -57.56655 54 ft 15 kts 120°
2026-04-26 19:05 -37.94016 -57.56541 53 ft 15 kts 120°
2026-04-26 19:05 -37.94019 -57.56426 53 ft 12 kts 64°
2026-04-26 19:06 -37.94011 -57.56405 52 ft 3 kts 63°
2026-04-26 19:06 -37.93994 -57.56364 53 ft 1 kts 63°
2026-04-26 19:06 -37.93988 -57.56350 53 ft 4 kts 54°
2026-04-26 19:06 -37.93954 -57.56328 53 ft 6 kts 12°
2026-04-26 19:07 -37.93921 -57.56336 53 ft 5 kts 313°
2026-04-26 19:07 -37.93891 -57.56397 51 ft 19 kts 302°
2026-04-26 19:07 -37.93678 -57.56821 50 ft 92 kts 302°
2026-04-26 19:07 -37.93236 -57.57709 147 ft 138 kts 300°
2026-04-26 19:08 -37.92716 -57.58768 726 ft 144 kts 298°
2026-04-26 19:08 -37.92196 -57.59863 1479 ft 145 kts 292°
2026-04-26 19:08 -37.91671 -57.60982 2219 ft 154 kts 291°
2026-04-26 19:08 -37.91092 -57.62239 2619 ft 176 kts 291°
2026-04-26 19:09 -37.90431 -57.63668 3056 ft 201 kts 292°
2026-04-26 19:09 -37.89675 -57.65275 3684 ft 221 kts 292°
2026-04-26 19:09 -37.88864 -57.66965 4638 ft 228 kts 291°
2026-04-26 19:09 -37.88027 -57.68702 5576 ft 235 kts 292°
2026-04-26 19:10 -37.87162 -57.70496 6434 ft 243 kts 292°
2026-04-26 19:10 -37.86217 -57.72311 7291 ft 255 kts 302°
2026-04-26 19:10 -37.84767 -57.73750 8178 ft 278 kts 326°
2026-04-26 19:10 -37.82827 -57.74356 9085 ft 300 kts 352°
2026-04-26 19:11 -37.80700 -57.74260 9721 ft 307 kts 357°
2026-04-26 19:11 -37.78490 -57.74096 10155 ft 331 kts 358°
2026-04-26 19:11 -37.76120 -57.73910 10523 ft 351 kts 359°
2026-04-26 19:11 -37.73639 -57.73711 11183 ft 360 kts 359°
2026-04-26 19:12 -37.71119 -57.73507 11965 ft 366 kts 358°
2026-04-26 19:12 -37.68558 -57.73302 12746 ft 371 kts 359°
2026-04-26 19:12 -37.65973 -57.73102 13563 ft 374 kts 359°
2026-04-26 19:12 -37.63370 -57.72906 14313 ft 376 kts 359°
2026-04-26 19:13 -37.60740 -57.72715 14996 ft 381 kts 359°
2026-04-26 19:13 -37.58077 -57.72528 15659 ft 386 kts 358°
2026-04-26 19:13 -37.55339 -57.72337 16313 ft 391 kts 359°
2026-04-26 19:13 -37.52610 -57.72141 16997 ft 395 kts
2026-04-26 19:14 -37.49853 -57.71939 17707 ft 398 kts
2026-04-26 19:14 -37.47083 -57.71458 18251 ft 408 kts 14°
2026-04-26 19:14 -37.44482 -57.69972 18789 ft 416 kts 33°
2026-04-26 19:14 -37.42969 -57.68487 19170 ft 418 kts 40°
2026-04-26 19:15 -37.39996 -57.65316 19982 ft 421 kts 41°
2026-04-26 19:15 -37.37756 -57.62912 20558 ft 424 kts 41°
2026-04-26 19:15 -37.35511 -57.60504 21163 ft 426 kts 41°
2026-04-26 19:15 -37.33248 -57.58083 21737 ft 429 kts 41°
2026-04-26 19:16 -37.30967 -57.55647 22258 ft 432 kts 41°
2026-04-26 19:16 -37.28671 -57.53197 22824 ft 434 kts 42°
2026-04-26 19:16 -37.26362 -57.50742 23321 ft 438 kts 42°
2026-04-26 19:16 -37.24023 -57.48266 23731 ft 441 kts 41°
2026-04-26 19:17 -37.21668 -57.45776 24171 ft 444 kts 41°
2026-04-26 19:17 -37.19292 -57.43261 24544 ft 448 kts 40°
2026-04-26 19:17 -37.16907 -57.40732 24927 ft 451 kts 40°
2026-04-26 19:17 -37.14501 -57.38186 25326 ft 454 kts 39°
2026-04-26 19:18 -37.12077 -57.35623 25710 ft 457 kts 39°
2026-04-26 19:18 -37.09641 -57.33051 26113 ft 460 kts 38°
2026-04-26 19:18 -37.07178 -57.30451 26498 ft 463 kts 38°
2026-04-26 19:18 -37.04711 -57.27849 26872 ft 466 kts 37°
2026-04-26 19:19 -37.02218 -57.25223 27242 ft 470 kts 37°
2026-04-26 19:19 -36.99714 -57.22588 27611 ft 473 kts 37°
2026-04-26 19:19 -36.97179 -57.19926 27979 ft 476 kts 36°
2026-04-26 19:19 -36.94638 -57.17258 28322 ft 479 kts 36°
2026-04-26 19:20 -36.92078 -57.14569 28676 ft 482 kts 36°
2026-04-26 19:20 -36.90338 -57.12745 28892 ft 484 kts 36°
2026-04-26 19:20 -36.86903 -57.09148 29278 ft 488 kts 34°
2026-04-26 19:20 -36.84291 -57.06417 29531 ft 492 kts 33°
2026-04-26 19:21 -36.81622 -57.03633 29805 ft 496 kts 33°
2026-04-26 19:21 -36.78965 -57.00860 30058 ft 499 kts 33°
2026-04-26 19:21 -36.76286 -56.98101 30296 ft 499 kts 30°
2026-04-26 19:21 -36.73415 -56.95724 30562 ft 492 kts 21°
2026-04-26 19:22 -36.70354 -56.93895 30712 ft 482 kts 14°
2026-04-26 19:22 -36.64239 -56.90840 30744 ft 469 kts 13°
2026-04-26 19:23 -36.58199 -56.87847 30727 ft 467 kts 12°
2026-04-26 19:23 -36.52155 -56.84859 30754 ft 468 kts 12°
2026-04-26 19:24 -36.46116 -56.81848 30757 ft 466 kts 12°
2026-04-26 19:24 -36.37090 -56.77363 30749 ft 465 kts 12°
2026-04-26 19:25 -36.33066 -56.75376 30742 ft 465 kts 10°
2026-04-26 19:25 -36.25046 -56.71412 30764 ft 466 kts 10°
2026-04-26 19:26 -36.19036 -56.68440 30768 ft 465 kts 10°
2026-04-26 19:26 -36.13021 -56.65480 30776 ft 465 kts 10°
2026-04-26 19:27 -36.07010 -56.62528 30765 ft 465 kts 10°
2026-04-26 19:27 -36.00968 -56.59567 30772 ft 464 kts 10°
2026-04-26 19:28 -35.94956 -56.56613 30751 ft 464 kts
2026-04-26 19:28 -35.88970 -56.53676 30783 ft 462 kts
2026-04-26 19:29 -35.83002 -56.50760 30753 ft 461 kts
2026-04-26 19:29 -35.78047 -56.48348 30771 ft 460 kts
2026-04-26 19:30 -35.71084 -56.44962 30782 ft 460 kts
2026-04-26 19:30 -35.67142 -56.43047 30783 ft 460 kts
2026-04-26 19:31 -35.60194 -56.39671 30742 ft 459 kts
2026-04-26 19:31 -35.54256 -56.36797 30750 ft 459 kts
2026-04-26 19:32 -35.51281 -56.35363 30594 ft 459 kts
2026-04-26 19:32 -35.48303 -56.33927 30355 ft 459 kts
2026-04-26 19:32 -35.45336 -56.32493 30122 ft 459 kts
2026-04-26 19:32 -35.42326 -56.31037 29881 ft 459 kts
2026-04-26 19:33 -35.39406 -56.29619 29206 ft 455 kts
2026-04-26 19:33 -35.36481 -56.28195 28434 ft 451 kts
2026-04-26 19:33 -35.33527 -56.26761 27754 ft 450 kts
2026-04-26 19:33 -35.30627 -56.25340 27099 ft 449 kts
2026-04-26 19:34 -35.27813 -56.23511 26456 ft 476 kts 24°
2026-04-26 19:34 -35.25463 -56.20493 25827 ft 508 kts 46°
2026-04-26 19:34 -35.23923 -56.16511 25295 ft 525 kts 64°
2026-04-26 19:34 -35.22802 -56.12267 24076 ft 525 kts 65°
2026-04-26 19:35 -35.21700 -56.08001 23215 ft 528 kts 66°
2026-04-26 19:35 -35.20610 -56.03712 22427 ft 527 kts 67°
2026-04-26 19:35 -35.19534 -55.99451 21733 ft 522 kts 67°
2026-04-26 19:35 -35.18462 -55.95228 21084 ft 517 kts 67°
2026-04-26 19:36 -35.17400 -55.91058 20430 ft 512 kts 68°
2026-04-26 19:36 -35.16705 -55.88326 20114 ft 507 kts 68°
2026-04-26 19:36 -35.15315 -55.82880 19394 ft 498 kts 68°
2026-04-26 19:36 -35.14284 -55.78876 18778 ft 488 kts 68°
2026-04-26 19:37 -35.13272 -55.74956 17683 ft 480 kts 67°
2026-04-26 19:37 -35.12291 -55.71160 17126 ft 458 kts 67°
2026-04-26 19:37 -35.11352 -55.67522 16482 ft 441 kts 67°
2026-04-26 19:37 -35.10443 -55.64013 15855 ft 429 kts 67°
2026-04-26 19:38 -35.09534 -55.60537 15236 ft 429 kts 68°
2026-04-26 19:38 -35.08622 -55.57071 14636 ft 429 kts 68°
2026-04-26 19:38 -35.07711 -55.53613 14011 ft 428 kts 68°
2026-04-26 19:38 -35.06810 -55.50163 13412 ft 425 kts 68°
2026-04-26 19:39 -35.05917 -55.46724 12816 ft 421 kts 68°
2026-04-26 19:39 -35.05036 -55.43325 12149 ft 420 kts 68°
2026-04-26 19:39 -35.04163 -55.39972 11698 ft 411 kts 68°
2026-04-26 19:39 -35.03305 -55.36685 10774 ft 402 kts 68°
2026-04-26 19:40 -35.02461 -55.33463 10282 ft 382 kts 68°
2026-04-26 19:40 -35.01669 -55.30440 10152 ft 368 kts 68°
2026-04-26 19:40 -35.00904 -55.27520 10026 ft 355 kts 68°
2026-04-26 19:40 -35.00165 -55.24701 9890 ft 343 kts 67°
2026-04-26 19:41 -34.99446 -55.21961 9654 ft 337 kts 67°
2026-04-26 19:41 -34.98730 -55.19259 9278 ft 335 kts 67°
2026-04-26 19:41 -34.98010 -55.16557 8844 ft 334 kts 67°
2026-04-26 19:41 -34.97536 -55.14782 8565 ft 332 kts 67°
2026-04-26 19:42 -34.96585 -55.11206 8051 ft 327 kts 68°
2026-04-26 19:42 -34.95891 -55.08577 7363 ft 324 kts 68°
2026-04-26 19:42 -34.95207 -55.05980 6826 ft 318 kts 68°
2026-04-26 19:42 -34.94534 -55.03426 6355 ft 315 kts 68°
2026-04-26 19:43 -34.93857 -55.00877 5866 ft 317 kts 68°
2026-04-26 19:43 -34.93175 -54.98332 5462 ft 313 kts 68°
2026-04-26 19:43 -34.92527 -54.95893 5209 ft 295 kts 68°
2026-04-26 19:43 -34.91904 -54.93549 4697 ft 289 kts 68°
2026-04-26 19:44 -34.91284 -54.91230 4111 ft 287 kts 68°
2026-04-26 19:44 -34.90399 -54.89141 3788 ft 268 kts 42°
2026-04-26 19:44 -34.89041 -54.87818 3551 ft 235 kts 14°
2026-04-26 19:44 -34.87543 -54.87310 3505 ft 218 kts 352°
2026-04-26 19:45 -34.86093 -54.87471 3424 ft 204 kts 332°
2026-04-26 19:45 -34.84748 -54.87992 3330 ft 204 kts 331°
2026-04-26 19:45 -34.83421 -54.88502 3235 ft 195 kts 331°
2026-04-26 19:45 -34.82151 -54.88985 3143 ft 187 kts 330°
2026-04-26 19:46 -34.81081 -54.89673 3057 ft 161 kts 302°
2026-04-26 19:46 -34.80709 -54.90818 2936 ft 141 kts 269°
2026-04-26 19:46 -34.80938 -54.91954 2774 ft 137 kts 255°
2026-04-26 19:46 -34.81228 -54.93043 2618 ft 134 kts 256°
2026-04-26 19:47 -34.81514 -54.94127 2462 ft 132 kts 256°
2026-04-26 19:47 -34.81699 -54.94829 2366 ft 131 kts 256°
2026-04-26 19:47 -34.82070 -54.96237 2176 ft 131 kts 256°
2026-04-26 19:47 -34.82345 -54.97289 2030 ft 130 kts 257°
2026-04-26 19:48 -34.82620 -54.98340 1882 ft 130 kts 257°
2026-04-26 19:48 -34.82895 -54.99391 1737 ft 130 kts 256°
2026-04-26 19:48 -34.83170 -55.00439 1559 ft 130 kts 256°
2026-04-26 19:48 -34.83443 -55.01476 1382 ft 128 kts 256°
2026-04-26 19:49 -34.83714 -55.02506 1211 ft 128 kts 256°
2026-04-26 19:49 -34.83985 -55.03537 1048 ft 129 kts 256°
2026-04-26 19:49 -34.84255 -55.04595 874 ft 131 kts 258°
2026-04-26 19:49 -34.84528 -55.05668 591 ft 133 kts 254°
2026-04-26 19:50 -34.84822 -55.06757 385 ft 136 kts 257°
2026-04-26 19:50 -34.85102 -55.07856 283 ft 137 kts 256°
2026-04-26 19:50 -34.85392 -55.08960 136 ft 137 kts 256°
2026-04-26 19:50 -34.85659 -55.09965 101 ft 96 kts 253°
2026-04-26 19:51 -34.85775 -55.10403 100 ft 25 kts 252°
2026-04-26 19:51 -34.85802 -55.10528 101 ft 6 kts 202°
2026-04-26 19:51 -34.85804 -55.10518 100 ft 1 kts 102°
2026-04-26 19:51 -34.85791 -55.10478 99 ft 9 kts 70°
2026-04-26 19:52 -34.85760 -55.10360 101 ft 16 kts 72°
2026-04-26 19:52 -34.85711 -55.10174 102 ft 25 kts 73°
2026-04-26 19:52 -34.85662 -55.09987 102 ft 17 kts 73°
2026-04-26 19:52 -34.85707 -55.09892 101 ft 10 kts 156°
2026-04-26 19:53 -34.85764 -55.09872 101 ft 7 kts 164°
2026-04-26 19:53 -34.85800 -55.09859 101 ft 3 kts 163°
2026-04-26 19:53 -34.85820 -55.09852 101 ft 3 kts 163°
2026-04-26 19:53 -34.85848 -55.09841 101 ft 6 kts 163°
2026-04-26 19:54 -34.85877 -55.09837 100 ft 1 kts 188°
2026-04-26 19:54 -34.85883 -55.09840 100 ft 1 kts 201°
2026-04-26 19:54 -34.85906 -55.09866 100 ft 3 kts 214°
2026-04-26 19:54 -34.85924 -55.09863 100 ft 2 kts 161°
2026-04-26 19:55 -34.85940 -55.09856 100 ft 2 kts 161°
2026-04-26 19:55 -34.85949 -55.09852 100 ft 0 kts 161°